Flag for Denmark Weather past 2 weeks in Hirtshals, Denmark

Now
57 °F

Cool.


Feels Like: 54 °F
Forecast: 58 / 67 °F
Wind: 10 mph from Southwest

Location: Aalborg

Current Time: Aug 29, 2015 at 8:47:41 AM

Latest Report: Aug 29, 2015 at 7:00 AM


Visibility: 12 mi

Pressure: 30.07 "Hg

Humidity: 94%

Dew point: 55 °F

Location of HirtshalsLocation

Historic Weather in Hirtshals — Graph

°F

Hirtshals temperature yesterday

Maximum temperature yesterday: 68 °F (at 3:00 PM)
Minimum temperature yesterday: 56 °F (at 5:00 AM)
Average temperature yesterday: 62 °F

Past Weeks' High & Low Weather Summary

 TemperatureHumidityPressure
High76 °F (Aug 17, 5:00 PM)97% (Aug 15, 9:00 PM)30.34 "Hg (Aug 15, 9:00 PM)
Low50 °F (Aug 23, 5:00 AM)35% (Aug 22, 4:00 PM)29.59 "Hg (Aug 27, 1:00 PM)
Average66 °F75%30.00 "Hg
* Reported Aug 14 7:00 AM — Aug 29 7:00 AM, Hirtshals, Weather by CustomWeather, © 2015

Note: Actual official high and low records may vary slightly from our data, if they occured in-between our weather recording intervals... More about our weather records

Advertising

Hirtshals weather history for previous 24 hours

 ConditionsComfort  
Time TempWeatherWind HumidityBarometerVisibility
7:00 AM
Sat, Aug 29
57 °FCool.10 mph94%30.07 "Hg12 mi
6:00 AM56 °FCool.12 mph95%30.06 "Hg12 mi
5:00 AM56 °FPassing clouds.9 mph96%30.05 "Hg12 mi
3:00 AM57 °FCool.9 mph96%30.03 "Hg11 mi
2:00 AM58 °FPassing clouds.10 mph93%30.02 "Hg12 mi
1:00 AM59 °FCool.9 mph90%30.00 "Hg16 mi
12:00 AM59 °FCool.8 mph89%29.99 "Hg17 mi
11:00 PM
Fri, Aug 28
59 °FPassing clouds.7 mph89%29.98 "Hg16 mi
9:00 PM62 °FCool.16 mph77%29.96 "Hg22 mi
8:00 PM63 °FPassing clouds.14 mph70%29.94 "Hg16 mi
7:00 PM64 °FMild.15 mph65%29.93 "Hg22 mi
6:00 PM66 °FMild.16 mph57%29.92 "Hg22 mi
5:00 PM67 °FPassing clouds.21 mph54%29.91 "Hg16 mi
4:00 PM68 °FMild.21 mph52%29.89 "Hg22 mi
3:00 PM68 °FMild.22 mph58%29.89 "Hg22 mi
2:00 PM68 °FPassing clouds.21 mph52%29.88 "Hg16 mi
1:00 PM67 °FMild.22 mph61%29.86 "Hg22 mi
12:00 PM66 °FMild.22 mph62%29.85 "Hg22 mi
11:00 AM65 °FScattered clouds.18 mph71%29.83 "Hg6 mi
10:00 AM64 °FMild.20 mph74%29.81 "Hg19 mi
9:00 AM61 °FCool.15 mph86%29.79 "Hg22 mi
8:00 AM58 °FPassing clouds.10 mph93%29.78 "Hg6 mi
Weather by CustomWeather, © 2015

See weather overviewHow to use our weather pages